Omaha Offutt, NE

1:40 AM CST on February 23, 2018 (GMT -0600)
Offutt Air Force Base

Weather History for KOFF - September, 2013

Change the Weather History Date:

Sunday, September 29, 2013

  Actual Average Record
Temperature  
Mean Temperature 58 °F -  
Max Temperature 77 °F 70 °F 91 °F (2002)
Min Temperature 39 °F 47 °F 35 °F (2003)
Degree Days  
Heating Degree Days 7    
Growing Degree Days 8 (Base 50)    
Moisture  
Dew Point 44 °F    
Average Humidity 80    
Maximum Humidity 100    
Minimum Humidity 28    
Precipitation  
Precipitation 0.00 in - - ()
Sea Level Pressure  
Sea Level Pressure 30.03 in    
Wind  
Wind Speed 3 mph (South)    
Max Wind Speed 16 mph    
Max Gust Speed 22 mph    
Visibility 5 miles    
Events Fog    
Averages and records for this station are not official NWS values.
T = Trace of Precipitation, MM = Missing Value Source: NWS Daily Summary

Daily Weather History Graph

Daily Weather History Graph

Search for Another Location

Airport or City:

Trip Planner

Search our weather history database for the weather conditions in past years. The results will help you decide how hot, cold, wet, or windy it might be!

Date:

Astronomy

Sep. 29, 2013 Rise Set
Actual Time 7:18 AM CDT 7:08 PM CDT
Civil Twilight 6:51 AM CDT 7:35 PM CDT
Nautical Twilight 6:19 AM CDT 8:07 PM CDT
Astronomical Twilight 5:46 AM CDT 8:40 PM CDT
Moon 1:58 AM CDT (9/29) 4:07 PM CDT (9/29)
Length of Visible Light 12h 44m
Length of Day
11h 49m
Waning Crescent, 27% of the Moon is Illuminated
Sep 29
Waning Crescent
Oct 4
New
Oct 11
First Quarter
Oct 18
Full
Oct 26
Last Quarter

Hourly Weather History & Observations

Time (CDT) Temp. Windchill Dew Point Humidity Pressure Visibility Wind Dir Wind Speed Gust Speed Precip Events Conditions
12:23 AM 44.6 °F - 44.6 °F 100% 30.07 in 1.0 mi South 1.2 mph - N/A   Clear
12:28 AM 44.6 °F - 44.6 °F 100% 30.07 in 4.0 mi Calm Calm - N/A   Clear
12:33 AM 42.8 °F - 42.8 °F 100% 30.07 in 8.0 mi Calm Calm - N/A   Clear
12:38 AM 42.8 °F - 42.8 °F 100% 30.06 in 0.8 mi Calm Calm - N/A   Clear
12:43 AM 42.8 °F - 41.0 °F 93% 30.07 in 0.8 mi Calm Calm - N/A   Clear
12:58 AM 42.6 °F - 42.4 °F 99% 30.09 in 0.5 mi SE 1.2 mph - N/A Fog Fog
1:13 AM 42.8 °F - 42.8 °F 100% 30.07 in 1.0 mi South 2.3 mph - N/A   Clear
1:23 AM 42.8 °F - 41.0 °F 93% 30.07 in 1.2 mi South 1.2 mph - N/A   Clear
1:28 AM 41.0 °F - 41.0 °F 100% 30.07 in 1.0 mi South 1.2 mph - N/A   Clear
1:33 AM 42.8 °F - 42.8 °F 100% 30.07 in 0.5 mi South 1.2 mph - N/A Fog Fog
1:58 AM 41.7 °F - 41.5 °F 99% 30.09 in 0.5 mi Calm Calm - N/A Fog Fog
2:58 AM 41.0 °F - 41.0 °F 100% 30.08 in 0.8 mi Calm Calm - N/A   Clear
3:03 AM 41.0 °F - 41.0 °F 100% 30.06 in 1.2 mi Calm Calm - N/A   Clear
3:08 AM 42.8 °F - 42.8 °F 100% 30.06 in 1.0 mi Calm Calm - N/A   Clear
3:13 AM 41.0 °F - 41.0 °F 100% 30.06 in 0.2 mi Calm Calm - N/A Fog Fog
3:58 AM 39.6 °F - 39.2 °F 99% 30.08 in 0.2 mi SE 2.3 mph - N/A Fog Fog
4:58 AM 40.3 °F - 40.1 °F 99% 30.06 in 0.5 mi Calm Calm - N/A Fog Fog
5:48 AM 41.0 °F - 41.0 °F 100% 30.05 in 0.8 mi Calm Calm - N/A   Clear
5:58 AM 39.9 °F - 39.7 °F 99% 30.07 in 0.2 mi Calm Calm - N/A Fog Fog
6:58 AM 39.9 °F - 39.7 °F 99% 30.09 in 0.2 mi Calm Calm - N/A Fog Fog
7:58 AM 41.0 °F 39.0 °F 41.0 °F 100% 30.10 in 0.5 mi SSE 3.5 mph - N/A Fog Fog
8:08 AM 44.6 °F - 44.6 °F 100% 30.07 in 0.2 mi SSE 2.3 mph - N/A Fog Fog
8:23 AM 46.4 °F - 46.4 °F 100% 30.07 in 0.8 mi South 2.3 mph - N/A   Clear
8:28 AM 46.4 °F - 46.4 °F 100% 30.07 in 2.0 mi SSE 2.3 mph - N/A   Clear
8:33 AM 48.2 °F - 48.2 °F 100% 30.07 in 5.0 mi SSE 2.3 mph - N/A   Clear
8:58 AM 49.6 °F - 49.6 °F 100% 30.09 in 9.0 mi SSE 4.6 mph - N/A   Clear
9:58 AM 56.1 °F - 56.1 °F 100% 30.08 in 10.0 mi South 6.9 mph - N/A   Clear
10:58 AM 67.6 °F - 47.1 °F 48% 30.06 in 10.0 mi SSW 10.4 mph - N/A   Clear
11:58 AM 71.6 °F - 44.2 °F 37% 30.04 in 10.0 mi South 13.8 mph - N/A   Clear
12:58 PM 74.5 °F - 43.7 °F 33% 30.01 in 10.0 mi South 13.8 mph - N/A   Clear
1:58 PM 76.3 °F - 42.1 °F 29% 29.98 in 10.0 mi SSW 11.5 mph - N/A   Clear
2:58 PM 77.0 °F - 41.5 °F 28% 29.95 in 10.0 mi South 12.7 mph - N/A   Clear
3:08 PM 77.0 °F - 42.8 °F 29% 29.93 in 10.0 mi SSW 15.0 mph - N/A   Clear
3:58 PM 77.5 °F - 42.1 °F 28% 29.93 in 10.0 mi South 15.0 mph - N/A   Clear
4:58 PM 76.5 °F - 41.5 °F 29% 29.92 in 10.0 mi South 16.1 mph - N/A   Clear
5:58 PM 75.2 °F - 42.6 °F 31% 29.91 in 10.0 mi South 15.0 mph 21.9 mph N/A   Clear
6:58 PM 70.2 °F - 43.5 °F 38% 29.91 in 10.0 mi South 9.2 mph - N/A   Clear
7:58 PM 64.6 °F - 45.1 °F 49% 29.92 in 10.0 mi SSE 5.8 mph - N/A   Clear
8:58 PM 59.5 °F - 46.4 °F 62% 29.93 in 10.0 mi SSE 3.5 mph - N/A   Clear
9:58 PM 49.1 °F - 46.2 °F 90% 29.93 in 10.0 mi Calm Calm - N/A   Clear
10:58 PM 54.9 °F - 45.5 °F 71% 29.93 in 10.0 mi South 4.6 mph - N/A   Clear
11:58 PM 56.1 °F - 47.8 °F 74% 29.92 in 10.0 mi SSE 5.8 mph - N/A   Clear